Location: Recife
(8.0585°S, 34.8848°W)
Time: 07:40:50
(UTC-03:00)

Vanguard 3 - Pass Details

Date: 19 April 2026
Orbit: 507 x 3205 km, 33.4° (Epoch: 13 May)

Event Time Altitude Azimuth Distance (km) Brightness Sun altitude
Rises 04:58:41 0° 323° (NW) 3,542 10.2 -6.4°
Reaches altitude 10° 05:00:53 10° 329° (NNW) 2,847 9.7 -5.9°
Maximum altitude 05:07:44 48° 43° (NE) 1,880 9.5 -4.2°
Drops below altitude 10° 05:19:43 10° 112° (ESE) 4,886 12.2 -1.3°
Sets 05:24:42 0° 117° (ESE) 6,308 12.6 -0.1°
